Location: Wildcat Hills Observatory
(41.6350°N, 103.6812°W)
Time: 06:15:52
(UTC-06:00)

Daily predictions for brighter satellites

Satellite Brightness Start Highest point End
(mag) Time Altitude Azimuth Time Altitude Azimuth Time Altitude Azimuth
Cosmos 1624 Rocket 4.2 19:02:35 10° N 19:07:42 52° ENE 19:12:45 10° SE
Cosmos 921 Rocket 3.7 19:08:53 10° NNW 19:13:02 59° WSW 19:17:08 10° S
COSMOS 2455 4.2 19:07:23 10° WSW 19:13:04 42° NW 19:18:48 10° NNE
Cosmos 1441 Rocket 3.2 19:10:47 10° N 19:14:33 87° W 19:18:17 10° S
Meteor 1-22 Rocket 4.3 19:11:52 10° SSE 19:17:02 50° E 19:22:08 10° NNE
Meteor 1-29 4.3 19:14:41 10° NE 19:17:19 20° E 19:19:56 10° SE
Cosmos 2219 Rocket 3.3 19:13:21 10° SW 19:18:47 50° WNW 19:24:17 10° NNE
Meteor 1-28 Rocket 3.3 19:17:45 10° NNE 19:21:25 54° E 19:25:03 10° S
Cosmos 2278 Rocket 2.6 19:16:38 10° NNW 19:22:16 70° WSW 19:27:53 10° SSE
Cosmos 1378 3.5 19:18:43 10° N 19:22:17 41° ENE 19:25:49 10° SSE
Cosmos 2233 Rocket 4.2 19:16:43 10° S 19:23:01 84° W 19:29:23 10° N
Meteor 2-5 Rocket 4.1 19:18:19 10° NNW 19:23:56 71° W 19:29:26 10° S
Cosmos 1707 3.0 19:21:37 10° NNW 19:25:28 72° W 19:29:17 10° S
USA 215 3.3 19:19:23 10° NE 19:25:53 63° SE 19:32:20 10° SW
METEOR-M 4.3 19:20:43 10° SSE 19:25:54 53° ENE 19:31:06 10° N
Cosmos 2297 3.7 19:20:22 10° NNW 19:26:00 63° ENE 19:31:35 10° SE
SJ-6B 2.8 19:23:32 10° SSE 19:27:29 80° ENE 19:31:32 10° N
Meteor 1-24 Rocket 3.7 19:22:34 10° N 19:28:17 73° E 19:33:43 10° SSE
Cosmos 1076 Rocket 4.0 19:24:24 10° N 19:28:26 37° ENE 19:32:27 10° SE
FENGYUN 3A 4.4 19:27:48 10° SE 19:32:28 31° ENE 19:37:11 10° N
Cosmos-2242 4.1 19:29:02 10° SE 19:32:33 24° E 19:36:07 10° NE
Cosmos 1758 4.2 19:31:45 10° SSE 19:35:13 28° E 19:38:44 10° NNE
Helios 1B rocket 2.7 19:32:37 10° NNE 19:36:35 45° E 19:40:31 10° S
Cosmos 1452 Rocket 4.1 19:32:00 10° N 19:36:54 37° ENE 19:41:45 10° SE
Cosmos 2369 Rocket 3.9 19:38:07 10° NNE 19:41:17 15° NE 19:43:36 12° ENE
Cosmos 1408 Rocket 3.8 19:37:45 10° N 19:41:58 46° ENE 19:46:08 10° SSE
SeaSat 1 3.5 19:39:22 10° NE 19:43:11 22° ESE 19:46:58 10° SSE
ATLAS 3B R/B 4.3 19:37:03 10° WSW 19:44:00 37° NW 19:50:46 10° NNE
Cosmos 1603 4.5 19:39:27 10° SSE 19:44:15 28° ESE 19:49:05 10° NE
Resurs 01 Rocket 1.6 19:42:16 10° SSE 19:46:42 71° ENE 19:51:08 10° N
Okean 3 Rocket 4.1 19:44:14 10° NNW 19:48:45 64° W 19:53:13 10° S
CZ-4B DEB 3.5 19:48:46 19° SE 19:50:31 33° ENE 19:53:30 10° N
Resurs 1-3 3.6 19:46:16 10° SSE 19:50:35 60° ENE 19:54:56 10° N
Cosmos 2333 Rocket 3.9 19:49:04 10° WSW 19:54:20 36° WNW 19:59:38 10° N
FengYun 1-2 T 4.2 19:49:02 10° SSE 19:54:30 67° ENE 19:59:57 10° N
Spot 1 4.5 19:52:55 10° S 19:57:44 74° WSW 20:02:18 10° NNW
NOSS 3-2 (A) 3.4 19:52:55 10° SSW 19:58:59 84° ESE 20:05:38 10° NE
ATLAS CENTAUR R/B 2.7 19:56:21 10° NW 20:00:16 38° WSW 20:03:53 10° S
Atlas Centaur 2 4.2 19:58:55 10° WSW 20:06:06 31° SSW 20:11:38 14° SE
Cosmos 1674 3.7 20:04:14 10° NNE 20:07:21 27° ENE 20:07:21 27° ENE
Meteor 1-21 Rocket 4.2 20:02:37 10° N 20:08:09 61° ENE 20:13:36 10° SSE
Cosmos 1743 Rocket 3.9 20:04:31 10° N 20:08:47 43° ENE 20:10:41 27° SE
ALOS 2.2 20:04:49 10° SSE 20:09:27 67° ENE 20:14:06 10° N
ASTRO E2 4.5 20:10:15 10° SW 20:13:08 19° S 20:13:54 18° SSE
In-Cosmos 22 4.2 20:07:58 10° N 20:13:47 89° W 20:19:32 10° S
Cosmos 1269 Rocket 4.4 20:08:58 10° S 20:13:51 40° ESE 20:18:46 10° NE
GP-B 4.0 20:13:24 10° NNE 20:16:39 29° ENE 20:16:39 29° ENE
Nadezhda 4 Rocket 4.0 20:11:10 10° N 20:17:25 63° E 20:23:28 10° SSE
Spot 2 Rocket 4.2 20:14:08 10° S 20:19:04 55° W 20:24:01 10° NNW
Cosmos 1048 Rocket 4.4 20:15:41 10° S 20:20:35 39° ESE 20:25:28 10° NE
Cosmos 1092 Rocket 4.1 20:16:23 10° N 20:22:25 50° ENE 20:25:37 26° SE
Cosmos 2237 Rocket 4.4 20:18:02 10° WSW 20:22:45 26° NW 20:27:27 10° N
OAO 3 Rocket 4.0 20:18:23 10° WSW 20:22:46 37° S 20:23:54 32° SE
Helios 1A 3.9 20:19:39 10° S 20:23:41 48° W 20:27:45 10° NNW
CZ-2D R/B 3.2 20:27:32 33° SSE 20:29:13 90° NE 20:33:09 10° NNW
Envisat 3.9 20:30:15 29° ENE 20:30:15 29° ENE 20:34:20 10° N
Cosmos 1953 2.7 20:26:41 10° SSW 20:30:38 62° W 20:34:35 10° N
ASTEX 1 3.2 20:26:33 10° N 20:31:29 79° E 20:36:22 10° S
ATLAS 5 CENTAUR R/B 1.9 20:29:20 10° SW 20:34:06 80° NW 20:39:19 10° NNE
ATLAS CENTAUR R/B 4.1 20:28:55 10° SW 20:34:31 75° NW 20:53:32 10° NE
CZ-4C R/B 4.3 20:31:01 10° W 20:35:37 26° NW 20:40:42 10° NNE
NOSS 3-2 (C) 3.7 20:29:59 10° SW 20:36:04 70° NW 20:42:44 10° NNE
Cosmos 1634 Rocket 4.1 20:33:48 28° SSE 20:36:45 48° E 20:42:41 10° NNE
Cosmos 2026 Rocket 4.4 20:33:28 10° N 20:39:05 37° ENE 20:39:13 37° ENE
CENTAUR R/B 3.6 20:33:46 10° S 20:47:41 - NE 20:36:16 23° SSE
SL-16 R/B 3.6 20:35:50 10° SW 20:41:07 39° WNW 20:46:28 10° N
H-2A R/B 3.5 20:47:27 33° SSW 20:48:53 52° W 20:52:43 10° NNW
H-2A R/B 4.2 20:51:48 16° NNE 20:51:48 16° NNE 20:53:03 10° NNE
SJ-11-01 4.4 20:52:51 57° NE 20:52:51 57° NE 20:56:58 10° N
Cosmos 724 4.5 20:52:08 10° SW 20:58:02 74° WNW 21:04:09 10° NNE
Cosmos 2195 Rocket 4.4 20:54:19 10° N 21:00:37 64° E 21:01:18 60° ESE
USA 215 4.2 21:02:35 10° NE 21:08:43 45° NNW 21:14:49 10° W
ERS-1 Rocket 3.1 21:14:41 66° N 21:14:41 66° N 21:19:00 10° NNW
Cosmos 1842 Rocket 4.4 21:16:31 48° W 21:16:32 48° W 21:20:46 10° N
BREEZE-M DEB (TANK) 3.3 21:08:26 10° WNW 21:18:05 64° N 21:18:07 64° N
SeaSat 1 3.2 21:16:08 10° NNE 21:20:54 50° WNW 21:25:39 10° SW
Cosmos 1627 Rocket 4.3 21:15:09 10° N 21:21:22 90° NNE 21:21:42 82° S
Cosmos 2369 Rocket 2.3 21:20:30 10° NNW 21:25:24 68° NNW 21:25:24 68° NNW
Cosmos 1943 Rocket 3.4 21:32:02 10° NNW 21:35:24 33° N 21:35:24 33° N
Cosmos 839 Rocket 4.2 21:38:34 10° NNW 21:45:56 77° W 21:45:56 77° W
